DW6016 Weather Reports


time (UTC)temp
C
wind
direction
speed
KPH
gust
KPH
rain 1hr
cm
rain 24hr
cm
rain mn
cm
humidity
%
barometer
mb
20260505124955 12 290 0.0 0.0 0.00 0.00 0.00 91 1015.9
20260505124452 12 289 0.0 0.0 0.00 0.00 0.00 91 1016.3
20260505123948 12 289 0.0 0.0 0.00 0.00 0.00 91 1016.1
20260505123444 12 291 0.0 0.0 0.00 0.00 0.00 92 1016.1
20260505122940 12 291 0.0 0.0 0.00 0.00 0.00 92 1016.2
20260505122438 12 291 0.0 0.0 0.00 0.00 0.00 92 1016.1
20260505121934 12 291 0.0 0.0 0.00 0.00 0.00 92 1016.2
20260505121432 12 291 0.0 0.0 0.00 0.00 0.00 92 1016.1
20260505120927 12 291 0.0 0.0 0.00 0.00 0.00 92 1016.0
20260505120424 12 291 0.0 0.0 0.00 0.00 0.00 91 1016.0
20260505115923 12 291 0.0 0.0 0.00 0.00 0.00 91 1016.0
20260505115420 12 291 0.0 0.0 0.00 0.00 0.00 92 1015.9
20260505114918 12 291 0.0 0.0 0.00 0.00 0.00 92 1016.0
20260505114414 12 291 0.0 0.0 0.00 0.00 0.00 93 1016.3
20260505113910 12 291 0.0 0.0 0.00 0.00 0.00 93 1016.1
20260505113407 12 291 0.0 0.0 0.00 0.00 0.00 93 1015.9
20260505112903 12 291 0.0 0.0 0.00 0.00 0.00 93 1015.8
20260505112401 11 291 0.0 0.0 0.00 0.00 0.00 94 1016.0
20260505111856 11 291 0.0 0.0 0.00 0.00 0.00 94 1016.0
20260505111351 11 291 0.0 0.0 0.00 0.00 0.00 94 1016.0
20260505110847 11 291 0.0 0.0 0.00 0.00 0.00 95 1016.0
20260505110345 11 291 0.0 0.0 0.00 0.00 0.00 95 1015.9
20260505101815 11 291 0.0 0.0 0.00 0.00 0.00 99 1015.6
20260505101310 11 291 0.0 0.0 0.00 0.00 0.00 99 1015.3
20260505100806 10 291 0.0 0.0 0.00 0.00 0.00 98 1015.4
20260505100303 10 291 0.0 0.0 0.00 0.00 0.00 98 1015.4
20260505095759 10 291 0.0 0.0 0.00 0.00 0.00 98 1015.8
20260505095257 10 291 0.0 0.0 0.00 0.00 0.00 98 1015.7
20260505094752 10 291 0.0 0.0 0.00 0.00 0.00 98 1015.4
20260505094249 10 291 0.0 0.0 0.00 0.00 0.00 97 1015.5
20260505093745 10 291 0.0 0.0 0.00 0.00 0.00 97 1015.5
20260505093243 10 291 0.0 0.0 0.00 0.00 0.00 97 1015.4
20260505092739 10 291 0.0 0.0 0.00 0.00 0.00 97 1015.4
20260505092238 10 291 0.0 0.0 0.00 0.00 0.00 96 1015.4
20260505091735 10 291 0.0 0.0 0.00 0.00 0.00 96 1015.4
20260505091233 10 291 0.0 0.0 0.00 0.00 0.00 95 1015.2
20260505090730 11 291 0.0 0.0 0.00 0.00 0.00 94 1015.3
20260505090229 11 291 0.0 0.0 0.00 0.00 0.00 94 1015.3
20260505085725 11 291 0.0 0.0 0.00 0.00 0.00 94 1014.9
20260505085224 11 291 0.0 0.0 0.00 0.00 0.00 93 1015.1
20260505084721 11 291 0.0 0.0 0.00 0.00 0.00 93 1015.3
20260505084220 11 291 0.0 0.0 0.00 0.00 0.00 92 1015.4
20260505083716 11 291 0.0 0.0 0.00 0.00 0.00 92 1015.0
20260505083213 11 291 0.0 0.0 0.00 0.00 0.00 91 1015.1
20260505082709 12 291 0.0 0.0 0.00 0.00 0.00 91 1015.1
20260505082206 12 284 0.0 0.0 0.00 0.00 0.00 91 1014.9
20260505081702 12 284 0.0 0.0 0.00 0.00 0.00 91 1015.0
20260505081200 12 284 0.0 0.0 0.00 0.00 0.00 91 1015.2
20260505080656 12 284 0.0 0.0 0.00 0.00 0.00 91 1014.8
20260505080152 12 284 0.0 0.0 0.00 0.00 0.00 91 1014.7
20260505075648 12 284 0.0 0.0 0.00 0.00 0.00 91 1014.9
20260505075145 12 284 0.0 0.0 0.00 0.00 0.00 91 1014.7
20260505074642 12 284 0.0 0.0 0.00 0.00 0.00 91 1014.9
20260505074139 12 284 0.0 0.0 0.00 0.00 0.00 91 1014.8
20260505073637 12 272 0.0 0.0 0.00 0.00 0.00 90 1014.4
20260505073135 12 272 0.0 0.0 0.00 0.00 0.00 90 1014.5
20260505072630 12 272 0.0 0.0 0.00 0.00 0.00 89 1014.5
20260505072127 13 272 0.0 0.0 0.00 0.00 0.00 88 1014.5
20260505071623 13 272 0.0 0.0 0.00 0.00 0.00 88 1014.2
20260505071121 13 272 0.0 0.0 0.00 0.00 0.00 87 1014.3
20260505070618 13 272 0.0 0.0 0.00 0.00 0.00 86 1014.2
20260505070114 13 272 0.0 0.0 0.00 0.00 0.00 86 1014.2
20260505065610 13 272 0.0 0.0 0.00 0.00 0.00 86 1014.2
20260505065107 13 276 0.0 0.0 0.00 0.00 0.00 86 1014.1
20260505064604 13 275 1.6 1.6 0.00 0.00 0.00 86 1014.0
20260505064102 13 275 0.0 0.0 0.00 0.00 0.00 85 1014.1
20260505063559 13 276 0.0 0.0 0.00 0.00 0.00 85 1013.7
20260505063055 14 276 0.0 0.0 0.00 0.00 0.00 84 1013.7
20260505062551 14 276 0.0 0.0 0.00 0.00 0.00 84 1014.0
20260505062049 14 276 0.0 0.0 0.00 0.00 0.00 83 1013.7
20260505061546 15 272 0.0 0.0 0.00 0.00 0.00 83 1013.9
20260505061044 15 272 0.0 0.0 0.00 0.00 0.00 82 1013.7
20260505060541 15 277 0.0 0.0 0.00 0.00 0.00 82 1013.5
20260505060037 15 276 0.0 0.0 0.00 0.00 0.00 81 1013.7
20260505055533 15 276 1.6 1.6 0.00 0.00 0.00 81 1013.6
20260505055030 15 284 0.0 0.0 0.00 0.00 0.00 80 1013.6
20260505054527 16 286 1.6 1.6 0.00 0.00 0.00 79 1013.4
20260505054025 16 293 0.0 0.0 0.00 0.00 0.00 80 1013.6
20260505053522 16 314 0.0 0.0 0.00 0.00 0.00 80 1013.2
20260505053019 16 314 0.0 0.0 0.00 0.00 0.00 78 1013.4
20260505052516 16 314 0.0 0.0 0.00 0.00 0.00 78 1013.4
20260505052013 17 290 0.0 0.0 0.00 0.00 0.00 77 1013.2
20260505051510 17 307 0.0 0.0 0.00 0.00 0.00 77 1013.1
20260505051008 17 308 0.0 0.0 0.00 0.00 0.00 75 1013.1
20260505050506 18 304 0.0 0.0 0.00 0.00 0.00 74 1013.0
20260504224642 21 304 0.0 0.0 0.00 0.00 0.00 65 1012.4
20260504224138 21 304 0.0 0.0 0.00 0.00 0.00 65 1012.4
20260504223636 21 307 0.0 1.6 0.00 0.00 0.00 67 1012.5
20260504223131 21 300 0.0 0.0 0.00 0.00 0.00 65 1012.4
20260504222628 21 308 3.2 3.2 0.00 0.00 0.00 67 1012.6
20260504222125 21 294 0.0 1.6 0.00 0.00 0.00 67 1012.4
20260504221622 21 298 3.2 3.2 0.00 0.00 0.00 66 1012.8
20260504221120 21 305 1.6 3.2 0.00 0.00 0.00 65 1012.5
20260504220616 21 306 3.2 3.2 0.00 0.00 0.00 66 1012.7
20260504220114 21 310 1.6 1.6 0.00 0.00 0.00 67 1012.9
20260504215609 21 314 0.0 0.0 0.00 0.00 0.00 70 1012.8
20260504215107 21 288 0.0 0.0 0.00 0.00 0.00 66 1012.9
20260504214603 21 243 1.6 3.2 0.00 0.00 0.00 69 1013.0
20260504214059 20 304 0.0 1.6 0.00 0.00 0.00 68 1013.1
20260504213556 20 315 1.6 1.6 0.00 0.00 0.00 70 1013.2
20260504213053 20 102 1.6 4.8 0.00 0.00 0.00 69 1013.1
20260504212548 20 280 0.0 0.0 0.00 0.00 0.00 68 1013.1
20260504212046 20 300 0.0 0.0 0.00 0.00 0.00 68 1013.3
20260504211543 20 170 1.6 3.2 0.00 0.00 0.00 70 1013.6
20260504211040 20 100 1.6 3.2 0.00 0.00 0.00 72 1013.3
20260504210537 20 108 3.2 4.8 0.00 0.00 0.00 68 1013.7
20260504210033 20 289 3.2 3.2 0.00 0.00 0.00 70 1013.6
20260504205531 20 312 0.0 0.0 0.00 0.00 0.00 69 1013.6
20260504205029 20 321 0.0 0.0 0.00 0.00 0.00 70 1013.7
20260504204527 19 283 1.6 3.2 0.00 0.00 0.00 69 1013.7
20260504204026 18 312 1.6 1.6 0.00 0.00 0.00 72 1014.1
20260504203524 20 314 6.4 9.7 0.00 0.00 0.00 68 1014.0
20260504203021 20 246 0.0 0.0 0.00 0.00 0.00 72 1014.0
20260504202516 19 336 0.0 0.0 0.00 0.00 0.00 70 1014.0
20260504202013 20 285 0.0 1.6 0.00 0.00 0.00 70 1014.2
20260504201510 19 317 0.0 1.6 0.00 0.00 0.00 72 1014.1
20260504201008 18 286 0.0 0.0 0.00 0.00 0.00 72 1014.2
20260504200504 17 301 1.6 1.6 0.00 0.00 0.00 75 1014.2
20260504200001 19 310 4.8 9.7 0.00 0.00 0.00 70 1014.4
20260504195457 19 317 0.0 0.0 0.00 0.00 0.00 69 1014.6
20260504194954 18 315 1.6 1.6 0.00 0.00 0.00 74 1014.4
20260504194450 19 111 4.8 4.8 0.00 0.00 0.00 71 1014.6
20260504193946 18 271 0.0 0.0 0.00 0.00 0.00 74 1014.5
20260504193443 17 304 0.0 1.6 0.00 0.00 0.00 74 1014.3
20260504192942 20 293 0.0 1.6 0.00 0.00 0.00 67 1014.4
20260504192438 19 298 0.0 0.0 0.00 0.00 0.00 71 1014.7
20260504191938 18 290 0.0 0.0 0.00 0.00 0.00 73 1014.5
20260504191435 17 308 1.6 1.6 0.00 0.00 0.00 73 1014.6
20260504190930 16 212 1.6 3.2 0.00 0.00 0.00 79 1014.6
20260504190426 16 122 1.6 1.6 0.00 0.00 0.00 78 1014.9
20260504185923 16 280 1.6 1.6 0.00 0.00 0.00 78 1014.6
20260504185420 16 297 4.8 8.0 0.00 0.00 0.00 78 1014.8
20260504184916 17 302 0.0 3.2 0.00 0.00 0.00 76 1014.8
20260504184412 16 300 0.0 0.0 0.00 0.00 0.00 79 1014.9
20260504183908 16 303 3.2 3.2 0.00 0.00 0.00 78 1014.9
20260504183405 16 304 0.0 1.6 0.00 0.00 0.00 80 1014.7
20260504182903 16 299 1.6 1.6 0.00 0.00 0.00 77 1014.8
20260504182400 16 300 1.6 1.6 0.00 0.00 0.00 78 1014.7
20260504181856 16 313 0.0 0.0 0.00 0.00 0.00 81 1014.8
20260504181354 15 311 0.0 0.0 0.00 0.00 0.00 81 1014.6
20260504180853 15 299 4.8 4.8 0.00 0.00 0.00 80 1014.8
20260504180351 15 310 1.6 3.2 0.00 0.00 0.00 81 1014.7
20260504175849 16 310 3.2 4.8 0.00 0.00 0.00 79 1014.7
20260504175345 15 299 0.0 0.0 0.00 0.00 0.00 83 1014.9
20260504174844 15 305 0.0 1.6 0.00 0.00 0.00 82 1014.6
20260504174341 15 318 0.0 1.6 0.00 0.00 0.00 82 1014.7
20260504173838 15 307 1.6 3.2 0.00 0.00 0.00 82 1014.7
20260504173334 15 314 1.6 3.2 0.00 0.00 0.00 82 1014.6
20260504172831 15 303 0.0 1.6 0.00 0.00 0.00 82 1014.8
20260504172328 15 292 0.0 0.0 0.00 0.00 0.00 83 1014.8
20260504171824 15 308 1.6 1.6 0.00 0.00 0.00 83 1014.7
20260504171321 15 305 1.6 1.6 0.00 0.00 0.00 83 1014.8
20260504170819 15 293 1.6 1.6 0.00 0.00 0.00 84 1014.9
20260504170315 15 314 1.6 1.6 0.00 0.00 0.00 84 1014.5
20260504160233 14 297 0.0 0.0 0.00 0.00 0.00 86 1014.8
20260504150659 13 326 3.2 3.2 0.00 0.00 0.00 88 1014.4
20260504150156 13 290 1.6 1.6 0.00 0.00 0.00 88 1014.3
20260504141124 13 291 0.0 0.0 0.00 0.00 0.00 86 1013.6
20260504140621 13 290 0.0 1.6 0.00 0.00 0.00 89 1013.6
20260504140117 12 297 0.0 0.0 0.00 0.00 0.00 92 1013.6